Wind_Speed
12 10 11 12 14 19 18 17 23 19 20 16 16 15 15 17 17 16 16 16 17 17 17 17 17 16 15 15 15 15 14 13 14 14 14 14 13 14 13 11 12 10 10
14 16 16 20 22 21 24 27 27 19 18 18 17 16 15 17 17 17 17 18 18 18 17 16 16 16 15 16 15 14 14 13 14 14 15 14 14 14 14 13 14 10 10
20 21 23 23 22 22 21 24 19 14 17 18 16 15 15 16 17 18 17 18 18 17 16 16 16 16 15 15 14 13 13 13 13 13 15 14 13 13 13 12 11 10 9
18 16 15 16 19 19 20 18 16 12 14 14 14 15 15 15 16 18 18 17 17 16 16 15 14 14 13 12 12 12 12 12 12 13 14 13 13 13 12 12 11 10 9
19 13 11 11 12 13 15 15 14 13 13 13 13 14 14 15 16 18 17 17 17 16 15 14 14 13 13 13 12 11 11 12 13 15 15 12 14 14 14 13 12 12 11
7 7 7 8 10 13 13 14 14 13 12 13 13 13 14 14 15 16 17 17 16 16 15 14 12 12 12 12 12 12 12 11 16 15 15 15 14 14 14 14 13 12 12
6 7 7 7 10 13 13 14 14 13 12 12 12 14 13 14 14 14 13 13 15 13 12 12 12 12 12 13 13 13 14 13 16 15 14 13 12 12 12 12 12 11 11
10 6 8 9 12 13 13 14 13 13 11 12 13 14 14 14 13 13 12 13 12 12 11 11 12 13 14 14 14 14 13 13 14 13 12 11 10 11 11 11 11 11 11
12 9 11 12 13 14 14 13 12 11 11 12 13 14 13 13 13 12 11 12 11 11 11 11 12 15 15 14 13 12 12 12 12 10 11 9 9 10 11 11 11 12 12
12 9 10 13 14 14 14 13 11 10 10 11 12 13 13 12 12 12 12 11 12 11 12 12 14 14 13 12 11 11 11 10 10 10 9 9 9 11 12 13 13 14 14
10 11 12 9 17 12 12 12 10 9 10 10 12 13 12 12 12 11 12 10 11 12 12 13 14 12 12 12 9 9 7 12 9 9 9 10 11 12 13 14 16 17 19
12 5 16 9 15 14 12 11 10 10 8 9 11 12 12 12 12 11 11 11 12 12 13 13 13 10 9 13 9 7 13 10 11 10 11 12 13 14 16 19 20 20 20
14 8 12 14 13 13 13 12 9 10 10 10 10 11 13 12 13 12 11 12 14 12 15 13 11 8 14 10 8 8 11 12 11 11 13 15 16 18 19 19 20 19 19
16 15 15 16 18 13 11 12 7 9 9 9 9 10 11 12 12 12 11 12 13 11 13 17 5 11 13 14 9 10 12 12 12 13 14 17 18 18 18 18 18 16 15
15 16 15 17 16 16 16 16 12 11 6 7 8 9 10 8 11 11 10 11 13 10 8 9 9 10 12 12 11 11 12 12 14 14 15 16 16 16 15 14 14 12 12
16 17 17 17 15 13 17 16 12 15 12 7 2 7 6 7 9 9 8 8 9 13 8 8 12 12 6 11 11 12 13 13 13 14 14 13 13 13 12 11 10 10 10
15 16 15 16 14 11 10 10 10 9 8 8 8 8 4 6 9 10 9 9 10 12 12 13 12 15 7 10 10 11 11 11 10 11 12 12 10 10 9 8 8 9 10
16 16 15 13 13 10 8 8 10 11 11 10 6 9 9 8 9 10 9 7 12 13 9 7 10 9 6 6 8 8 9 9 8 8 9 8 7 8 6 6 7 9 11
17 17 16 15 13 10 9 9 8 9 10 5 7 5 8 8 8 12 10 11 15 9 8 5 9 8 9 4 5 5 6 6 6 4 5 5 5 3 2 5 7 9 11
18 17 17 15 16 12 11 10 8 8 9 8 6 10 7 7 9 11 12 14 15 9 8 11 13 13 8 9 3 4 4 4 3 3 2 2 2 1 4 6 8 11 13
19 19 18 18 16 14 12 10 10 7 7 6 10 8 9 10 11 10 10 13 14 18 20 15 10 9 4 11 13 4 6 6 6 4 2 2 9 3 6 8 9 11 18
17 20 20 18 17 17 13 16 11 10 10 5 8 7 10 12 10 10 16 13 9 10 12 12 19 15 4 6 10 10 9 6 7 7 5 4 3 5 5 10 14 15 13
17 17 19 17 18 18 16 16 17 13 13 11 7 9 10 10 8 9 13 16 16 14 6 10 10 8 16 8 9 13 6 15 8 7 8 5 7 7 5 10 15 15 14
19 16 17 18 18 18 17 14 17 14 8 8 8 10 10 9 9 12 14 16 14 15 13 10 10 9 7 5 12 11 15 12 7 17 7 17 2 9 10 10 6 20 20
20 17 18 19 19 19 19 17 17 15 10 9 9 6 9 8 8 9 15 17 16 13 12 12 11 13 10 12 10 8 14 14 15 17 14 24 15 20 6 11 10 14 18
21 20 18 20 21 20 20 19 18 18 15 14 15 14 10 11 9 9 12 14 15 13 12 13 16 15 17 15 16 13 8 12 11 7 10 11 22 12 8 18 16 12 14
Wind_Direction
125 113 109 115 115 124 118 103 95 84 86 97 105 106 111 111 108 109 114 114 111 111 109 104 103 102 102 99 97 98 94 92 91 89 85 85 88 90 91 93 99 103 105
131 99 86 97 90 100 100 87 83 90 99 102 105 108 105 108 111 111 115 113 109 108 105 102 98 100 101 99 98 96 94 92 86 88 89 88 89 91 91 94 91 95 100
117 100 90 84 79 86 86 82 88 102 103 105 109 110 109 106 110 111 109 107 104 103 101 98 97 99 100 99 97 94 94 90 87 90 93 86 88 90 90 89 92 90 88
121 111 105 90 81 78 80 90 107 114 112 110 110 107 107 109 111 110 106 103 104 101 99 98 101 107 105 102 97 99 94 93 95 91 90 93 94 91 88 87 85 85 85
119 111 101 92 86 88 90 100 106 114 112 112 112 111 113 116 115 116 109 106 105 103 101 103 103 105 103 99 96 94 101 104 105 72 103 101 92 91 90 87 84 80 79
155 135 112 94 97 106 105 107 113 114 114 112 113 114 117 117 117 122 110 102 105 104 101 103 106 104 98 93 93 97 100 109 97 115 100 96 93 92 91 88 84 77 72
108 185 135 116 115 119 118 115 114 115 117 117 119 118 120 117 120 120 117 114 103 102 97 103 100 94 93 92 97 99 100 105 103 98 96 90 87 85 80 82 80 78 74
150 223 137 132 128 127 119 115 118 114 116 121 119 120 122 123 122 121 119 117 113 113 111 104 96 96 95 100 102 101 97 92 88 88 85 84 82 81 81 80 82 81 77
163 192 133 130 130 131 124 122 119 116 113 114 116 120 123 123 124 120 118 116 116 108 105 96 96 95 99 103 99 95 88 80 85 83 83 81 78 81 83 81 79 76 74
125 178 149 133 134 136 131 130 123 122 117 118 120 121 123 123 120 122 120 121 122 116 106 107 100 104 104 92 87 85 87 91 83 82 76 80 85 86 83 80 80 79 76
173 125 153 151 131 145 130 125 125 126 126 126 124 126 129 120 119 118 122 123 119 117 116 105 110 109 100 91 78 79 91 89 85 87 96 95 89 87 86 84 81 80 78
149 157 107 156 146 123 134 131 131 104 127 127 124 122 117 113 114 119 124 123 120 122 112 114 113 110 117 80 74 87 91 98 100 106 103 98 96 93 91 88 87 86 84
150 184 169 155 139 136 148 144 133 134 132 131 127 123 121 123 124 127 130 128 126 126 124 122 115 107 102 117 94 102 103 102 108 106 104 101 99 95 92 90 89 87 82
155 165 172 149 145 168 150 118 139 153 128 130 127 122 126 120 127 141 139 121 131 132 123 96 114 93 93 99 113 113 109 114 112 108 105 104 100 95 91 88 85 81 74
158 157 164 160 152 157 126 152 165 157 111 130 135 134 126 132 133 135 144 137 140 115 131 114 107 104 96 97 106 105 109 114 113 108 104 100 100 96 92 91 84 79 74
161 161 162 152 154 159 162 168 166 119 192 127 154 140 121 158 154 149 141 123 139 135 147 120 118 96 91 98 107 113 115 113 113 112 107 102 97 95 94 88 81 68 58
165 169 162 161 157 156 154 162 141 150 151 161 199 183 161 168 160 158 149 112 157 142 131 117 113 103 134 104 115 119 118 119 116 111 111 106 100 93 89 78 59 45 39
175 176 173 164 163 168 164 168 145 157 168 137 139 162 127 117 147 155 125 147 154 146 140 136 104 114 130 120 126 122 130 127 124 118 110 112 111 105 87 56 38 28 18
182 182 182 175 173 173 181 163 147 154 144 189 141 176 139 121 134 143 137 160 162 137 131 92 133 131 134 146 102 139 143 143 145 123 110 103 93 86 73 39 5 4 2
190 182 187 188 183 182 178 167 170 173 153 192 162 206 181 146 148 147 166 158 136 136 172 143 157 159 133 133 197 232 171 187 165 150 115 86 69 342 353 356 338 342 347
190 188 187 197 188 178 177 168 176 163 143 146 184 195 176 160 149 161 163 159 165 186 156 161 149 120 144 166 178 236 220 211 202 194 201 151 267 347 253 313 327 331 334
193 195 193 200 194 187 180 160 181 188 160 178 181 163 169 158 157 151 168 161 158 187 165 167 183 143 199 176 149 218 266 273 257 222 224 209 222 228 283 320 301 318 323
206 197 198 196 194 193 189 186 170 193 181 182 182 169 174 175 171 173 173 175 176 149 243 185 182 166 186 222 221 182 226 247 231 280 283 280 250 305 285 291 331 320 327
225 199 200 198 198 192 196 199 184 178 170 159 192 195 180 177 176 194 188 179 181 192 191 194 211 206 226 163 264 244 217 256 262 290 233 210 335 321 307 312 281 311 319
219 211 203 200 195 196 194 195 191 188 197 214 194 212 201 194 195 181 194 198 201 200 202 219 218 220 224 219 217 329 274 287 294 297 324 346 357 279 349 314 296 290 309
216 219 210 206 197 201 206 200 204 200 189 201 201 213 207 203 201 198 191 189 195 210 219 223 222 228 236 245 252 256 271 252 247 322 292 305 313 314 295 311 322 293 292
Height
3169 3171 3172 3171 3171 3172 3171 3171 3168 3174 3175 3179 3181 3183 3185 3186 3187 3188 3188 3189 3189 3191 3192 3193 3193 3194 3195 3196 3196 3198 3197 3198 3198 3197 3198 3197 3198 3198 3199 3199 3199 3200 3200
3174 3173 3174 3174 3174 3174 3174 3173 3174 3178 3181 3183 3185 3187 3188 3189 3189 3190 3191 3192 3192 3193 3195 3195 3195 3196 3198 3198 3198 3199 3199 3199 3199 3200 3199 3200 3200 3200 3201 3201 3201 3201 3201
3176 3176 3177 3177 3177 3178 3177 3175 3180 3184 3185 3187 3189 3191 3192 3192 3192 3192 3194 3195 3196 3196 3197 3197 3198 3198 3199 3200 3200 3200 3201 3202 3202 3202 3201 3202 3203 3203 3203 3203 3202 3203 3203
3179 3179 3180 3181 3182 3182 3180 3179 3185 3187 3188 3190 3191 3192 3194 3194 3195 3195 3197 3198 3198 3199 3200 3201 3201 3201 3201 3202 3202 3203 3204 3204 3205 3204 3204 3205 3205 3205 3205 3204 3205 3205 3205
3181 3182 3183 3184 3184 3184 3183 3184 3187 3190 3192 3193 3194 3196 3196 3197 3198 3199 3200 3201 3201 3202 3203 3203 3203 3203 3203 3204 3205 3206 3206 3206 3208 3207 3209 3207 3207 3207 3207 3207 3207 3208 3207
3182 3185 3186 3186 3187 3188 3187 3189 3190 3193 3195 3195 3197 3198 3199 3200 3201 3202 3203 3204 3204 3205 3205 3205 3206 3206 3207 3207 3208 3209 3209 3209 3207 3210 3210 3210 3210 3210 3210 3210 3210 3210 3210
3187 3187 3187 3188 3189 3190 3191 3192 3193 3195 3197 3198 3200 3200 3201 3202 3203 3205 3206 3206 3207 3206 3207 3208 3209 3209 3209 3211 3211 3211 3211 3212 3212 3213 3213 3214 3214 3213 3213 3213 3213 3213 3213
3192 3189 3188 3190 3191 3192 3193 3193 3196 3196 3199 3201 3202 3203 3203 3205 3205 3206 3208 3208 3209 3209 3210 3211 3212 3212 3213 3214 3214 3214 3215 3215 3216 3217 3217 3216 3216 3216 3216 3216 3216 3215 3215
3193 3190 3190 3191 3193 3194 3196 3197 3198 3199 3201 3202 3203 3204 3206 3206 3207 3208 3209 3210 3211 3212 3213 3214 3214 3215 3216 3217 3217 3218 3218 3219 3220 3220 3219 3219 3219 3220 3220 3219 3219 3218 3218
3192 3191 3192 3193 3195 3196 3198 3199 3200 3202 3203 3203 3205 3206 3207 3208 3209 3210 3211 3212 3213 3214 3215 3216 3217 3218 3220 3220 3221 3221 3221 3222 3222 3222 3223 3223 3223 3222 3222 3222 3222 3221 3221
3191 3192 3195 3194 3197 3197 3200 3201 3202 3203 3204 3205 3207 3208 3209 3210 3211 3212 3212 3214 3215 3216 3217 3218 3220 3221 3222 3223 3224 3224 3224 3223 3225 3225 3225 3225 3225 3225 3225 3225 3225 3224 3223
3195 3193 3191 3197 3198 3200 3202 3203 3204 3205 3206 3207 3209 3210 3210 3211 3212 3214 3215 3216 3218 3219 3219 3222 3223 3223 3225 3225 3227 3227 3226 3227 3228 3228 3228 3228 3228 3228 3228 3228 3227 3227 3226
3198 3197 3198 3198 3200 3202 3203 3204 3205 3207 3208 3209 3211 3212 3213 3213 3214 3215 3216 3218 3220 3220 3222 3224 3224 3225 3226 3231 3231 3230 3230 3231 3231 3231 3230 3231 3231 3231 3231 3231 3230 3230 3229
3198 3200 3200 3199 3201 3204 3205 3208 3209 3211 3210 3210 3212 3214 3215 3215 3216 3217 3218 3220 3221 3223 3225 3227 3228 3229 3229 3230 3232 3232 3233 3234 3234 3233 3234 3234 3234 3235 3235 3234 3234 3233 3233
3198 3199 3201 3201 3203 3204 3207 3210 3212 3212 3214 3212 3214 3215 3217 3217 3218 3219 3220 3222 3225 3226 3227 3228 3230 3231 3232 3233 3234 3235 3236 3236 3236 3237 3237 3238 3238 3238 3237 3237 3236 3236 3235
3199 3201 3200 3201 3204 3206 3207 3208 3210 3214 3215 3215 3217 3217 3218 3219 3220 3221 3223 3225 3226 3230 3231 3231 3231 3234 3236 3236 3237 3238 3239 3239 3239 3239 3240 3240 3241 3240 3240 3240 3239 3238 3237
3199 3200 3200 3202 3204 3206 3207 3208 3210 3215 3217 3219 3217 3218 3219 3219 3221 3222 3224 3227 3227 3228 3230 3233 3234 3236 3239 3239 3240 3241 3241 3241 3242 3242 3242 3243 3243 3243 3242 3242 3241 3240 3240
3199 3198 3200 3205 3205 3207 3208 3209 3213 3215 3217 3217 3216 3218 3219 3220 3221 3223 3226 3228 3228 3230 3233 3236 3238 3242 3243 3242 3242 3243 3243 3244 3244 3244 3244 3244 3244 3244 3244 3244 3243 3242 3241
3197 3199 3201 3204 3205 3207 3209 3211 3212 3214 3216 3216 3218 3220 3220 3221 3222 3223 3228 3228 3230 3235 3238 3239 3241 3242 3243 3245 3244 3244 3245 3245 3244 3244 3245 3245 3245 3245 3245 3245 3244 3243 3242
3197 3199 3201 3203 3206 3207 3210 3211 3213 3214 3216 3218 3219 3220 3221 3222 3223 3225 3227 3229 3231 3239 3238 3235 3240 3242 3245 3246 3251 3247 3245 3244 3243 3243 3243 3243 3244 3244 3244 3244 3243 3243 3242
3196 3198 3200 3202 3205 3208 3209 3212 3215 3215 3217 3218 3219 3220 3221 3222 3224 3226 3230 3231 3233 3233 3227 3238 3240 3243 3245 3245 3245 3246 3242 3240 3240 3241 3242 3244 3246 3243 3246 3244 3243 3242 3240
3195 3197 3200 3202 3205 3207 3209 3211 3214 3216 3217 3219 3219 3221 3222 3224 3225 3227 3229 3233 3235 3235 3236 3237 3232 3238 3245 3244 3242 3243 3240 3240 3236 3237 3239 3241 3245 3248 3246 3245 3243 3242 3240
3195 3195 3198 3201 3204 3207 3208 3211 3213 3215 3218 3219 3219 3221 3222 3224 3226 3228 3229 3230 3234 3236 3239 3238 3238 3239 3223 3241 3240 3238 3250 3243 3250 3245 3243 3241 3244 3244 3245 3241 3240 3239 3238
3196 3194 3196 3199 3202 3206 3208 3210 3213 3215 3217 3219 3221 3221 3222 3224 3226 3227 3229 3231 3234 3235 3237 3239 3240 3240 3237 3241 3239 3238 3244 3241 3247 3217 3242 3225 3238 3240 3240 3239 3240 3238 3235
3197 3195 3194 3197 3201 3204 3207 3210 3213 3215 3215 3219 3219 3221 3222 3224 3226 3227 3228 3231 3233 3235 3236 3238 3239 3240 3241 3241 3240 3229 3233 3235 3234 3231 3235 3229 3231 3233 3237 3234 3236 3235 3233
3195 3195 3194 3195 3199 3202 3205 3209 3211 3214 3216 3217 3219 3220 3222 3223 3224 3227 3228 3229 3231 3233 3235 3236 3237 3238 3239 3239 3238 3236 3237 3235 3234 3234 3237 3238 3235 3238 3226 3233 3235 3236 3230